Showing default

IRIDE-MS2-HEO-5, 64571

Orbit data source: Space-Track

IRIDE-MS2-HEO-5, 64571 is an Italian payload satellite in SSO that was launched on Mon, 23 Jun 2025 UTC via an FALCON 9 launch vehicle from the Air Force Western Test Range (AFWTR). Payload-class satellites include a variety of spacecraft equipped with specific instruments for various scientific and technological missions. These include communications satellites like Starlink; space stations such as the ISS; scientific satellites like the Hubble; Earth observation satellites from companies like Planet Labs, Umbra, and HawkEye 360; GPS; miniature CubeSats for education and research; and military/defense satellites.

Loading next visibility...
Identifier
64571, 2025-135AV
Orbit
SSO
Country
Flag of ITIT
Related business
Manufacturer
ArgoTec
Mission
Operational Civil Imaging
Bus & Motor
HAWK, Unknown motor
Mass
65 kg wet, 65 kg dry
Launch date (UTC)
2025-06-23 (10 months ago)
Launch vehicle
FALCON 9
Launch site
Air Force Western Test Range (AFWTR)
Object type
Payload
Rocket body
Debris
Shape & HBR
Box + 2 Pan, 3.0 m
Radar Cross Section
0.683 m², Medium (>0.1 m² and < 1m²)

Expand to show TLE details & history
Last TLE update: 5 hours ago

TLE from 5 hours ago
0 IRIDE-MS2-HEO-5
1 64571U 25135AV  26120.18633238  .00002525  00000-0  24376-3 0  9993
2 64571  97.7663 235.0087 0004390 110.0481 250.1212 14.93748223 46724
Epoch: 2026-04-30T04:28Z
TLE epoch observation values (Epoch: 2026-04-30T04:28:19.117Z)
Latitude
-0°
Longitude
-50.20751°
Altitude
590.346 km
Speed
7.564 km/s
True Right ascension
15h 40m 02s
True Declination
0° 00' 00"
Sunlit
Object was in full shadow at epoch
Visualization orbit readout
Latitude
Unknown
Longitude
Unknown
Altitude
Unknown
Speed
Unknown
Apparent Right ascension
Unknown
Apparent Declination
Unknown
Sunlit
N/A
Visualization observer readout
Local Sidereal Time
16:38:33
Azimuth
Unknown
Elevation
Unknown
Doppler factor
Unknown
Orbital elements
Apogee altitude
586.333 km
Perigee altitude
580.221 km
Semi-major axis
6,961.414 km
Eccentricity
0.00044
Inclination
97.7663°
RAAN
235.0087°
Arg. of periapsis
110.0481°
True anomaly
250.0739°
Mean anomaly
250.1212°
Eccentric anomaly
250.09755°
Mean motion
3.73677 °/min
Orbital period
96.34 mins
BSTAR
0.00024376
Loading maneuver chart data...
Computing Atmospheric mass density...
Loading historical data...
Loading historical data...
Loading historical data...
Loading historical data...
Loading historical data...
Loading historical data...
Loading historical data...

Documentation

Showing up to 5 results
|